EW6940 Weather Reports


time (UTC)temp
F
wind
direction
speed
knots
gust
knots
rain 1hr
in
rain 24hr
in
rain mn
in
humidity
%
barometer
mb
20260504194623 73 82 0.0 0.0 0.00 0.02 0.02 46 1008.2
20260504194124 74 82 0.0 0.0 0.00 0.02 0.02 45 1008.1
20260504193623 75 82 0.0 0.0 0.00 0.02 0.02 48 1008.1
20260504193124 76 82 0.0 0.0 0.00 0.02 0.02 47 1008.2
20260504192625 77 82 0.0 0.0 0.00 0.02 0.02 49 1008.1
20260504192349 78 82 0.0 0.0 0.00 0.02 0.02 43 1008.2
20260504191851 80 82 0.0 0.0 0.00 0.02 0.02 41 1008.2
20260504191120 81 83 0.0 0.0 0.00 0.02 0.02 43 1008.1
20260504190849 82 82 0.0 0.0 0.00 0.02 0.02 43 1008.1
20260504190119 82 82 0.0 0.0 0.00 0.02 0.02 48 1008.2
20260504185620 82 82 0.0 0.0 0.00 0.02 0.02 48 1008.2
20260504185120 82 84 0.0 0.0 0.00 0.02 0.02 52 1008.2
20260504184620 81 84 0.0 0.0 0.00 0.02 0.02 53 1008.4
20260504184119 81 84 0.0 0.0 0.00 0.02 0.02 38 1008.2
20260504183620 81 83 0.0 0.0 0.00 0.02 0.02 41 1008.2
20260504183119 81 83 0.0 0.0 0.00 0.02 0.02 48 1008.3
20260504182620 80 83 0.0 0.0 0.00 0.02 0.02 42 1008.4
20260504182119 80 84 0.0 0.0 0.00 0.02 0.02 42 1008.4
20260504181619 80 84 0.0 0.0 0.00 0.02 0.02 40 1008.5
20260504181118 80 84 0.0 0.0 0.00 0.02 0.02 39 1008.7
20260504180849 80 84 0.0 0.0 0.01 0.02 0.02 41 1008.7
20260504180119 80 84 0.0 0.0 0.01 0.02 0.02 37 1008.7
20260504175614 80 83 0.0 0.0 0.01 0.02 0.02 42 1008.8
20260504175115 80 84 0.0 0.0 0.02 0.02 0.02 49 1008.9
20260504174610 79 84 0.0 0.0 0.02 0.02 0.02 42 1009.1
20260504174108 79 84 0.0 0.0 0.02 0.02 0.02 47 1009.1
20260504173608 78 83 0.0 0.0 0.02 0.02 0.02 42 1009.1
20260504173106 79 84 0.0 0.0 0.02 0.02 0.02 43 1009.2
20260504172602 79 84 0.0 0.0 0.02 0.02 0.02 43 1009.2
20260504172330 78 83 0.0 0.9 0.02 0.02 0.02 43 1009.3
20260504172205 78 83 0.0 0.0 0.02 0.02 0.02 47 1009.2
20260504171058 77 82 0.0 0.9 0.02 0.02 0.02 45 1009.4
20260504170557 77 98 0.0 0.0 0.01 0.01 0.01 46 1009.4
20260504170326 76 105 0.0 0.0 0.01 0.01 0.01 42 1009.3
20260504151013 65 59 0.0 0.0 0.00 0.00 0.00 55 1010.5
20260504150512 65 60 0.0 0.0 0.00 0.00 0.00 56 1010.5
20260504140953 55 59 0.0 0.0 0.00 0.00 0.00 72 1010.9
20260504140453 55 59 0.0 0.0 0.00 0.00 0.00 71 1011.0
20260504130701 51 58 0.0 0.0 0.00 0.00 0.00 79 1011.7
20260504090105 0 0.0 0.0 0.00 0.00 0.00 1011.1
20260504081529 38 86 0.0 0.0 0.00 0.00 0.00 85 1010.9
20260504081023 38 86 0.0 0.0 0.00 0.00 0.00 86 1011.0
20260504080524 38 86 0.0 0.0 0.00 0.00 0.00 86 1011.0
20260504050652 36 92 0.0 0.0 0.00 0.00 0.00 87 1011.0
20260504045918 36 92 0.0 0.0 0.00 0.00 0.00 87 1011.1
20260504045414 36 92 0.0 0.0 0.00 0.00 0.00 86 1011.2
20260504044912 36 92 0.0 0.0 0.00 0.00 0.00 86 1011.1
20260504044412 36 92 0.0 0.0 0.00 0.00 0.00 86 1011.2
20260504043912 37 92 0.0 0.0 0.00 0.00 0.00 86 1011.2
20260504043412 37 92 0.0 0.0 0.00 0.00 0.00 86 1011.2
20260504042906 37 92 0.0 0.0 0.00 0.00 0.00 86 1011.2
20260504042404 37 91 0.0 0.0 0.00 0.00 0.00 85 1011.2
20260504041904 37 92 0.0 0.0 0.00 0.00 0.00 85 1011.2
20260504041404 37 92 0.0 0.0 0.00 0.00 0.00 85 1011.2
20260504040905 37 92 0.0 0.0 0.00 0.00 0.00 85 1011.1
20260504040404 37 92 0.0 0.0 0.00 0.00 0.00 85 1011.0
20260504035901 38 92 0.0 0.0 0.00 0.00 0.00 84 1011.0
20260504035402 38 92 0.0 0.0 0.00 0.00 0.00 83 1010.9
20260504034903 38 106 0.0 0.0 0.00 0.00 0.00 82 1010.9
20260504034400 38 106 0.0 0.0 0.00 0.00 0.00 82 1010.9
20260504034129 38 106 0.0 0.0 0.00 0.00 0.00 82 1010.9
20260504033358 38 106 0.0 0.0 0.00 0.00 0.00 82 1010.8
20260504032854 38 106 0.0 0.0 0.00 0.00 0.00 82 1010.8
20260504032623 38 106 0.0 0.0 0.00 0.00 0.00 82 1010.7
20260504031849 38 106 0.0 0.0 0.00 0.00 0.00 82 1010.8
20260504031347 38 106 0.0 0.0 0.00 0.00 0.00 82 1010.8
20260504030847 38 106 0.0 0.0 0.00 0.00 0.00 82 1010.7
20260504030343 39 106 0.0 0.0 0.00 0.00 0.00 82 1010.7
20260504025845 39 106 0.0 0.0 0.00 0.00 0.00 81 1010.8
20260504025344 39 106 0.0 0.0 0.00 0.00 0.00 81 1010.8
20260504024840 40 106 0.0 0.0 0.00 0.00 0.00 79 1010.7
20260504024339 40 106 0.0 0.0 0.00 0.00 0.00 78 1010.7
20260504023839 40 106 0.0 0.0 0.00 0.00 0.00 78 1010.7
20260504023333 40 106 0.0 0.0 0.00 0.00 0.00 77 1010.7
20260504022833 40 106 0.0 0.0 0.00 0.00 0.00 78 1010.7
20260504022334 40 106 0.0 0.0 0.00 0.00 0.00 78 1010.6
20260504021834 41 106 0.0 0.0 0.00 0.00 0.00 78 1010.6
20260504021333 41 138 0.0 0.0 0.00 0.00 0.00 76 1010.6
20260504020833 41 217 0.0 0.0 0.00 0.00 0.00 74 1010.6
20260504020557 41 237 0.0 0.0 0.00 0.00 0.00 75 1010.5
20260504015826 42 237 0.0 0.0 0.00 0.00 0.00 74 1010.5
20260504015322 42 237 0.0 0.0 0.00 0.00 0.00 73 1010.5
20260504014820 42 237 0.0 0.0 0.00 0.00 0.00 73 1010.4
20260504014552 42 237 0.0 0.0 0.00 0.00 0.00 73 1010.4
20260504014047 43 237 0.0 0.0 0.00 0.00 0.00 71 1010.4
20260504013312 43 237 0.0 0.0 0.00 0.00 0.00 69 1010.4
20260504012811 43 237 0.0 0.0 0.00 0.00 0.00 67 1010.3
20260504012540 43 237 0.0 0.0 0.00 0.00 0.00 69 1010.3
20260504011808 43 237 0.0 0.0 0.00 0.00 0.00 69 1010.2
20260504011303 43 237 0.0 0.0 0.00 0.00 0.00 69 1010.1
20260504010800 43 237 0.0 0.0 0.00 0.00 0.00 66 1010.1
20260504010258 43 237 0.0 0.0 0.00 0.00 0.00 66 1010.0
20260504005756 44 237 0.0 0.0 0.00 0.00 0.00 65 1009.8
20260504005528 44 237 0.0 0.0 0.00 0.00 0.00 64 1009.8
20260504004754 44 237 0.0 0.0 0.00 0.00 0.00 62 1009.7
20260504004524 44 237 0.0 0.0 0.00 0.00 0.00 61 1009.6
20260504003752 45 237 0.0 0.0 0.00 0.00 0.00 59 1009.5
20260504003254 45 237 0.0 0.0 0.00 0.00 0.00 55 1009.5
20260504002751 46 237 0.0 0.0 0.00 0.00 0.00 55 1009.3
20260504002250 46 237 0.0 0.0 0.00 0.00 0.00 54 1009.3
20260504001746 47 237 0.0 0.0 0.00 0.00 0.00 53 1009.2
20260504001242 48 237 0.0 0.0 0.00 0.00 0.00 52 1009.1
20260504000742 48 237 0.0 0.0 0.00 0.00 0.00 50 1009.1
20260504000238 49 237 0.0 0.0 0.00 0.00 0.00 49 1009.1
20260503235738 49 237 0.0 0.0 0.00 0.00 0.00 47 1009.0
20260503235234 50 237 0.0 0.0 0.00 0.00 0.00 46 1008.9
20260503234735 50 237 0.0 0.0 0.00 0.00 0.00 45 1008.9
20260503234234 50 237 0.0 0.0 0.00 0.00 0.00 45 1008.9
20260503233735 51 237 0.0 0.0 0.00 0.00 0.00 44 1008.8
20260503233232 51 237 0.0 0.0 0.00 0.00 0.00 43 1008.8
20260503232732 51 237 0.0 0.0 0.00 0.00 0.00 43 1008.8
20260503232225 52 238 0.0 0.0 0.00 0.00 0.00 42 1008.8
20260503231725 52 143 0.0 0.0 0.00 0.00 0.00 41 1008.8
20260503231222 53 142 0.0 0.0 0.00 0.00 0.00 41 1008.7
20260503230722 53 221 0.0 0.0 0.00 0.00 0.00 39 1008.7
20260503230221 54 313 0.0 0.0 0.00 0.00 0.00 37 1008.7
20260503225722 54 314 0.0 0.0 0.00 0.00 0.00 36 1008.6
20260503225221 54 299 0.0 0.0 0.00 0.00 0.00 36 1008.5
20260503224716 54 307 0.0 0.0 0.00 0.00 0.00 38 1008.6
20260503224217 54 271 0.0 0.0 0.00 0.00 0.00 37 1008.5
20260503223716 54 310 0.0 0.0 0.00 0.00 0.00 36 1008.6
20260503223214 54 330 0.0 0.0 0.00 0.00 0.00 36 1008.5
20260503222944 54 259 0.0 2.6 0.00 0.00 0.00 37 1008.5
20260503222208 54 311 0.0 2.6 0.00 0.00 0.00 36 1008.4
20260503221710 54 283 0.0 0.0 0.00 0.00 0.00 36 1008.3
20260503221208 54 328 0.0 0.0 0.00 0.00 0.00 37 1008.3
20260503220707 54 293 0.0 0.0 0.00 0.00 0.00 39 1008.4
20260503220206 53 309 0.0 0.0 0.00 0.00 0.00 37 1008.4
20260503215707 53 335 0.0 3.5 0.00 0.00 0.00 37 1008.5
20260503215207 53 285 0.0 3.5 0.00 0.00 0.00 36 1008.4
20260503214659 53 34 0.0 0.9 0.00 0.00 0.00 39 1008.5
20260503214156 53 281 0.0 0.0 0.00 0.00 0.00 39 1008.5
20260503213656 53 306 0.0 0.0 0.00 0.00 0.00 38 1008.4
20260503213153 53 314 0.0 1.7 0.00 0.00 0.00 37 1008.5
20260503212653 53 311 0.0 1.7 0.00 0.00 0.00 37 1008.4
20260503212155 53 308 0.0 2.6 0.00 0.00 0.00 38 1008.5
20260503211654 53 271 0.0 2.6 0.00 0.00 0.00 39 1008.3
20260503211154 53 319 0.0 0.9 0.00 0.00 0.00 37 1008.3
20260503210654 53 334 0.0 0.9 0.00 0.00 0.00 37 1008.3
20260503210148 53 322 0.0 0.0 0.00 0.00 0.00 38 1008.3
20260503205643 54 282 0.0 0.0 0.00 0.00 0.00 38 1008.2
20260503205143 54 305 0.0 2.6 0.00 0.00 0.00 37 1008.2
20260503204644 54 333 0.0 2.6 0.00 0.00 0.00 38 1008.1
20260503204143 54 143 0.0 1.7 0.00 0.00 0.00 37 1008.2
20260503203643 54 309 0.0 1.7 0.00 0.00 0.00 36 1008.1
20260503203144 55 288 0.0 0.0 0.00 0.00 0.00 36 1008.2
20260503202910 54 161 0.0 7.0 0.00 0.00 0.00 38 1008.1
20260503202411 53 294 0.0 7.0 0.00 0.00 0.00 37 1008.1
20260503201641 53 326 0.0 1.7 0.00 0.00 0.00 37 1008.3
20260503201140 53 310 0.0 1.7 0.00 0.00 0.00 37 1008.2
20260503200639 53 153 0.0 7.8 0.00 0.00 0.00 38 1008.1
20260503200142 53 304 0.9 7.8 0.00 0.00 0.00 37 1008.2
20260503200137 54 309 0.0 4.3 0.00 0.00 0.00 36 1008.1
20260503195135 54 318 0.0 1.7 0.00 0.00 0.00 37 1008.0